Flag for United Kingdom Weather past 2 weeks in Birmingham, England, United Kingdom

Now
39 °F

Passing clouds.


Feels Like: 36 °F
Forecast: 39 / 46 °F
Wind: 5 mph from West

Location: Birmingham / Airport

Current Time: Jan 27, 2015 at 4:18:35 AM

Latest Report: Jan 27, 2015 at 3:20 AM


Visibility: N/A

Pressure: 30.36 "Hg

Humidity: 81%

Dew point: 34 °F

Location of BirminghamLocation

Historic Weather in Birmingham — Graph

°F

Birmingham temperature yesterday

Maximum temperature yesterday: 48 °F (at 2:50 AM)
Minimum temperature yesterday: 41 °F (at 8:50 PM)
Average temperature yesterday: 45 °F

Past Weeks' High & Low Weather Summary

 TemperatureHumidityPressure
High52 °F (Jan 15, 1:50 AM)100% (Jan 12, 9:50 PM)30.45 "Hg (Jan 12, 9:50 PM)
Low25 °F (Jan 20, 2:50 AM)61% (Jan 16, 1:20 PM)28.94 "Hg (Jan 15, 1:20 AM)
Average38 °F84%29.85 "Hg
* Reported Jan 12 2:20 AM — Jan 27 2:50 AM, Birmingham, Weather by CustomWeather, © 2014

Note: Actual official high and low records may vary slightly from our data, if they occured in-between our weather recording intervals... More about our weather records

Advertising

Birmingham weather history for previous 24 hours

 ConditionsComfort  
Time TempWeatherWind HumidityBarometerVisibility
2:50 AM
Jan 27
39 °FChilly.5 mph81%30.36 "HgN/A
2:20 AM41 °FPassing clouds.9 mph76%30.36 "HgN/A
1:50 AM41 °FPartly cloudy.8 mph76%30.33 "HgN/A
1:20 AM41 °FPassing clouds.8 mph76%30.33 "HgN/A
12:50 AM41 °FPassing clouds.7 mph76%30.36 "HgN/A
12:20 AM41 °FQuite cool.7 mph76%30.36 "HgN/A
11:50 PM
Jan 26
41 °FPassing clouds.6 mph76%30.36 "HgN/A
11:20 PM41 °FPassing clouds.10 mph76%30.36 "HgN/A
10:50 PM41 °FPassing clouds.9 mph76%30.36 "HgN/A
10:20 PM41 °FPassing clouds.12 mph76%30.33 "HgN/A
9:50 PM41 °FPassing clouds.9 mph81%30.33 "HgN/A
9:20 PM41 °FPassing clouds.9 mph81%30.33 "HgN/A
8:50 PM41 °FPassing clouds.9 mph81%30.36 "HgN/A
8:20 PM43 °FPassing clouds.10 mph76%30.33 "HgN/A
7:50 PM43 °FPassing clouds.12 mph76%30.33 "HgN/A
7:20 PM43 °FPassing clouds.12 mph76%30.33 "HgN/A
6:50 PM43 °FPassing clouds.12 mph76%30.33 "HgN/A
6:20 PM43 °FPassing clouds.13 mph71%30.30 "HgN/A
5:50 PM43 °FPartly cloudy.12 mph71%30.30 "HgN/A
5:20 PM45 °FPartly cloudy.13 mph66%30.27 "HgN/A
4:50 PM45 °FPartly cloudy.12 mph66%30.27 "HgN/A
4:20 PM45 °FBroken clouds.15 mph66%30.24 "HgN/A
3:50 PM45 °FPartly sunny.14 mph66%30.24 "HgN/A
3:20 PM45 °FPartly sunny.16 mph66%30.24 "HgN/A
2:50 PM45 °FPartly sunny.17 mph66%30.24 "HgN/A
2:20 PM45 °FPartly sunny.13 mph66%30.24 "HgN/A
1:50 PM45 °FScattered clouds.13 mph66%30.21 "HgN/A
1:20 PM45 °FPassing clouds.13 mph66%30.21 "HgN/A
12:50 PM45 °FScattered clouds.13 mph66%30.21 "HgN/A
12:20 PM45 °FScattered clouds.14 mph66%30.24 "HgN/A
11:50 AM45 °FPassing clouds.15 mph71%30.21 "HgN/A
11:20 AM45 °FScattered clouds.14 mph71%30.21 "HgN/A
10:50 AM45 °FScattered clouds.16 mph76%30.21 "HgN/A
10:20 AM45 °FBroken clouds.16 mph76%30.21 "HgN/A
9:50 AM45 °FScattered clouds.20 mph81%30.18 "HgN/A
9:20 AM45 °FScattered clouds.15 mph87%30.18 "HgN/A
8:50 AM46 °FPartly sunny.13 mph87%30.18 "HgN/A
8:20 AM46 °FPartly sunny.12 mph87%30.18 "HgN/A
7:50 AM46 °FPassing clouds.10 mph93%30.15 "HgN/A
7:20 AM46 °FPassing clouds.9 mph93%30.12 "HgN/A
6:50 AM48 °FPartly cloudy.7 mph94%30.12 "Hg1 mi
6:20 AM48 °FPassing clouds.10 mph87%30.12 "HgN/A
5:50 AM48 °FPassing clouds.7 mph87%30.09 "HgN/A
5:20 AM46 °FPassing clouds.7 mph93%30.09 "HgN/A
4:50 AM46 °FPassing clouds.9 mph93%30.12 "HgN/A
4:20 AM46 °FLight rain. Partly cloudy.8 mph93%30.12 "HgN/A
Weather by CustomWeather, © 2014

See weather overviewHow to use our weather pages